Flag for Canada Weather past 2 weeks in Trois-Rivieres, Quebec, Canada

Now
60 °F

Cool.


Feels Like: 59 °F
Forecast: 49 / 71 °F
Wind: 8 mph from Southwest

Location: Trois Rivieres

Current Time: May 24, 2015 at 1:35:14 PM

Latest Report: May 24, 2015 at 1:00 PM


Visibility: N/A

Pressure: 30.04 "Hg

Humidity: 65%

Dew point: 48 °F

Location of Trois-RivieresLocation

Historic Weather in Trois-Rivieres — Graph

°F

Trois-Rivieres temperature yesterday

Maximum temperature yesterday: 59 °F (at 7:00 PM)
Minimum temperature yesterday: 35 °F (at 5:00 AM)
Average temperature yesterday: 47 °F

Past Weeks' High & Low Weather Summary

 TemperatureHumidityPressure
High77 °F (May 18, 5:00 PM)100% (May 10, 2:00 AM)30.36 "Hg (May 10, 2:00 AM)
Low35 °F (May 23, 5:00 AM)22% (May 13, 7:00 PM)29.51 "Hg (May 12, 6:00 PM)
Average55 °F69%29.99 "Hg
* Reported May 9 12:00 Noon — May 24 12:00 Noon, Trois-Rivieres, Weather by CustomWeather, © 2015

Note: Actual official high and low records may vary slightly from our data, if they occured in-between our weather recording intervals... More about our weather records

Advertising

Trois-Rivieres weather history for previous 24 hours

 ConditionsComfort  
Time TempWeatherWind HumidityBarometerVisibility
12:00 PM
Sun, May 24
58 °FCool.12 mph66%30.05 "HgN/A
11:00 AM57 °FCool.16 mph68%30.06 "HgN/A
10:00 AM56 °FCool.10 mph62%30.07 "HgN/A
9:00 AM55 °FCool.13 mph61%30.08 "HgN/A
8:00 AM55 °FCool.8 mph59%30.07 "HgN/A
7:00 AM53 °FCool.8 mph66%30.06 "HgN/A
6:00 AM53 °FCool.9 mph62%30.03 "HgN/A
5:00 AM53 °FCool.7 mph58%30.01 "HgN/A
4:00 AM54 °FCool.16 mph58%29.99 "HgN/A
3:00 AM55 °FCool.20 mph52%29.97 "HgN/A
2:00 AM54 °FCool.22 mph58%29.99 "HgN/A
1:00 AM53 °FCool.23 mph58%30.02 "HgN/A
12:00 AM54 °FCool.16 mph53%30.03 "HgN/A
11:00 PM
Sat, May 23
55 °FCool.16 mph52%30.05 "HgN/A
10:00 PM56 °FRefreshingly cool.21 mph56%30.07 "HgN/A
9:00 PM56 °FRefreshingly cool.7 mph46%30.08 "HgN/A
8:00 PM58 °FRefreshingly cool.9 mph32%30.08 "HgN/A
7:00 PM59 °FRefreshingly cool.18 mph36%30.08 "HgN/A
6:00 PM56 °FRefreshingly cool.22 mph44%30.09 "HgN/A
5:00 PM57 °FRefreshingly cool.23 mph46%30.11 "HgN/A
4:00 PM55 °FRefreshingly cool.25 mph46%30.14 "HgN/A
3:00 PM54 °FCool.24 mph51%30.16 "HgN/A
2:00 PM51 °FCool.23 mph55%30.19 "HgN/A
1:00 PM50 °FCool.15 mph50%30.21 "HgN/A
Weather by CustomWeather, © 2015

See weather overviewHow to use our weather pages